DW8935 Weather Reports


time (UTC)temp
F
wind
direction
speed
knots
gust
knots
rain 1hr
in
rain 24hr
in
rain mn
in
humidity
%
barometer
mb
20260901200002 55 284 0.9 7.0 0.00 0.00 0.00 88 1013.4
20260901194601 56 275 0.0 4.3 0.00 0.00 0.00 87 1013.3
20260901193057 56 263 0.9 6.1 0.00 0.00 0.00 87 1013.2
20260901191611 56 250 0.9 7.8 0.00 0.00 0.00 86 1013.1
20260901190053 57 237 3.5 9.6 0.00 0.00 0.00 85 1013.0
20260901184609 57 242 2.6 8.7 0.00 0.00 0.00 84 1012.7
20260901183051 58 223 2.6 8.7 0.00 0.00 0.00 84 1012.4
20260901181553 59 230 2.6 10.4 0.00 0.00 0.00 81 1012.3
20260901180040 60 267 5.2 12.2 0.00 0.00 0.00 78 1012.0
20260901174552 60 298 0.9 5.2 0.00 0.00 0.00 77 1011.7
20260901173039 60 268 0.9 5.2 0.00 0.00 0.00 77 1011.5
20260901171541 61 303 0.9 7.8 0.00 0.00 0.00 76 1011.4
20260901170038 61 296 3.5 9.6 0.00 0.00 0.00 76 1011.4
20260901164541 61 244 3.5 8.7 0.00 0.00 0.00 75 1011.6
20260901163035 61 284 1.7 7.8 0.00 0.00 0.00 76 1011.6
20260901161542 60 288 2.6 9.6 0.00 0.00 0.00 77 1011.7
20260901160058 60 315 2.6 7.0 0.00 0.00 0.00 78 1011.8
20260901154535 60 317 3.5 7.8 0.00 0.00 0.00 79 1011.9
20260901153033 60 294 1.7 6.1 0.00 0.00 0.00 79 1011.9
20260901151532 60 327 2.6 7.8 0.00 0.00 0.00 78 1011.9
20260901150030 60 315 1.7 7.0 0.00 0.00 0.00 77 1011.8
20260901144527 61 271 2.6 8.7 0.00 0.00 0.00 76 1011.8
20260901143025 61 269 2.6 10.4 0.00 0.00 0.00 73 1011.9
20260901141524 62 291 5.2 12.2 0.00 0.00 0.00 71 1012.0
20260901140026 62 258 4.3 9.6 0.00 0.00 0.00 70 1012.0
20260901134526 62 343 4.3 10.4 0.00 0.00 0.00 70 1011.8
20260901133020 62 299 6.1 11.3 0.00 0.00 0.00 70 1011.7
20260901131520 62 340 4.3 14.8 0.00 0.00 0.00 70 1012.0
20260901130027 62 321 7.0 13.9 0.00 0.00 0.00 71 1012.0
20260901124530 62 320 4.3 11.3 0.00 0.00 0.00 72 1011.9
20260901123037 62 275 4.3 17.4 0.00 0.00 0.00 71 1011.9
20260901121523 63 294 6.1 13.0 0.00 0.00 0.00 68 1012.0
20260901120030 64 321 4.3 11.3 0.00 0.00 0.00 65 1011.7
20260901114519 63 263 5.2 13.0 0.00 0.00 0.00 67 1011.7
20260901113019 63 329 4.3 10.4 0.00 0.00 0.00 68 1011.9
20260901111527 63 292 5.2 13.9 0.00 0.00 0.00 69 1011.6
20260901110020 63 299 6.1 13.0 0.00 0.00 0.00 68 1011.8
20260901104518 64 340 5.2 15.6 0.00 0.00 0.00 65 1011.7
20260901103017 65 327 6.1 14.8 0.00 0.00 0.00 62 1011.9
20260901101517 66 300 4.3 13.0 0.00 0.00 0.00 60 1011.4
20260901100017 67 296 5.2 14.8 0.00 0.00 0.00 58 1011.6
20260901094517 67 319 7.8 15.6 0.00 0.00 0.00 57 1011.4
20260901093017 68 323 9.6 17.4 0.00 0.00 0.00 52 1011.2
20260901091515 68 18 6.1 15.6 0.00 0.00 0.00 52 1011.5
20260901090015 67 327 6.1 17.4 0.00 0.00 0.00 52 1011.7
20260901084512 67 331 7.0 15.6 0.00 0.00 0.00 52 1012.2
20260901083011 67 25 5.2 17.4 0.00 0.00 0.00 52 1012.2
20260901081510 68 321 7.0 14.8 0.00 0.00 0.00 52 1012.4
20260901080014 68 331 6.1 13.0 0.00 0.00 0.00 51 1012.6
20260901074511 68 311 6.1 12.2 0.00 0.00 0.00 50 1012.8
20260901073013 69 332 6.1 13.9 0.00 0.00 0.00 50 1012.8
20260901071511 69 284 7.0 13.9 0.00 0.00 0.00 49 1012.8
20260901070010 69 310 6.1 14.8 0.00 0.00 0.00 48 1012.8
20260901064510 69 268 7.8 19.1 0.00 0.00 0.00 47 1012.9
20260901063011 70 275 6.1 19.1 0.00 0.00 0.00 47 1012.7
20260901061515 70 355 4.3 13.9 0.00 0.00 0.00 49 1012.6
20260901060008 70 309 9.6 16.5 0.00 0.00 0.00 48 1012.5
20260901054508 71 300 5.2 17.4 0.00 0.00 0.00 47 1012.4
20260901053007 71 355 7.0 23.5 0.00 0.00 0.00 46 1012.3
20260901051507 72 344 7.0 22.6 0.00 0.00 0.00 46 1012.4
20260901050006 72 314 12.2 26.1 0.00 0.00 0.00 44 1012.5
20260901044505 73 11 11.3 18.2 0.00 0.00 0.00 42 1012.7
20260901043001 73 296 9.6 20.0 0.00 0.00 0.00 45 1012.9
20260901041500 73 300 8.7 17.4 0.00 0.00 0.00 45 1013.2
20260901040059 73 5 8.7 18.2 0.00 0.00 0.00 46 1013.4
20260901034555 73 311 8.7 16.5 0.00 0.00 0.00 46 1014.0
20260901033054 72 324 7.8 24.3 0.00 0.00 0.00 46 1014.4
20260901031558 72 290 12.2 23.5 0.00 0.00 0.00 45 1014.8
20260901030052 73 296 9.6 20.9 0.00 0.00 0.00 44 1015.1
20260901024553 72 339 7.8 21.7 0.00 0.00 0.00 44 1015.6
20260901023047 72 287 12.2 20.9 0.00 0.00 0.00 42 1016.2
20260901021548 72 319 9.6 20.0 0.00 0.00 0.00 43 1016.3
20260901020049 72 328 11.3 26.9 0.00 0.00 0.00 43 1016.4
20260901014539 71 287 11.3 20.9 0.00 0.00 0.00 46 1016.5
20260901013037 70 342 15.6 26.1 0.00 0.00 0.00 46 1016.5
20260901011535 70 349 11.3 24.3 0.00 0.00 0.00 50 1016.5
20260901010032 69 300 8.7 21.7 0.00 0.00 0.00 53 1017.0
20260901004528 68 339 9.6 22.6 0.00 0.00 0.00 54 1017.4
20260901003026 68 317 6.1 18.2 0.00 0.00 0.00 54 1017.8
20260901001525 67 333 11.3 20.0 0.00 0.00 0.00 53 1018.0
20260901000021 67 311 9.6 17.4 0.00 0.00 0.00 55 1018.2
20260831234518 66 309 10.4 20.0 0.00 0.00 0.00 57 1018.4
20260831233013 65 13 9.6 20.0 0.00 0.00 0.00 57 1018.9
20260831231511 64 5 8.7 21.7 0.00 0.00 0.00 61 1019.7
20260831230009 63 336 7.8 17.4 0.00 0.00 0.00 64 1020.0
20260831224504 63 342 9.6 20.9 0.00 0.00 0.00 65 1020.5
20260831223001 62 310 7.8 17.4 0.00 0.00 0.00 67 1020.6
20260831221559 61 311 7.0 19.1 0.00 0.00 0.00 69 1020.8
20260831220057 60 344 7.8 15.6 0.00 0.00 0.00 70 1020.6
20260831214558 60 321 6.1 14.8 0.00 0.00 0.00 72 1020.5
20260831213058 59 336 5.2 15.6 0.00 0.00 0.00 73 1020.5
20260831211552 59 288 4.3 13.0 0.00 0.00 0.00 74 1020.7
20260831210051 58 329 6.1 13.9 0.00 0.00 0.00 75 1020.5
20260831204548 58 5 4.3 11.3 0.00 0.00 0.00 78 1020.4
20260831203047 58 323 3.5 11.3 0.00 0.00 0.00 80 1020.6
20260831201545 58 310 4.3 12.2 0.00 0.00 0.00 81 1020.8